Location: eljas
(40.1958°N, 6.8661°W)
Time: 14:15:20
(UTC+02:00)

Daily predictions for brighter satellites

Satellite Brightness Start Highest point End
(mag) Time Altitude Azimuth Time Altitude Azimuth Time Altitude Azimuth
Cosmos 44 3.1 21:34:06 10° NNW 21:38:33 87° ENE 21:43:10 10° SSE
Okean 2 Rocket 3.2 21:40:31 10° S 21:45:01 87° W 21:49:34 10° N
BREEZE-M DEB (TANK) 2.4 21:43:24 10° SW 21:45:54 52° SE 21:51:35 10° ENE
Cosmos 2227 4.2 21:40:26 10° NNW 21:46:07 84° ENE 21:51:48 10° SSE
Meteor 2-11 Rocket 4.4 21:44:34 10° N 21:50:40 71° E 21:56:42 10° SSE
CZ-2D R/B 3.2 21:47:31 10° SSE 21:51:22 73° ENE 21:55:14 10° N
Atlas Centaur 2 3.7 21:46:30 10° WSW 21:54:14 40° S 22:01:00 10° ESE
Cosmos 1452 Rocket 3.8 21:51:03 10° SSW 21:56:19 78° WNW 22:01:38 10° NNE
Delta 2 Rocket 4.5 21:54:04 10° SW 21:57:23 26° SSE 22:00:48 11° ESE
Cosmos 1420 Rocket 3.9 21:52:39 10° SSW 21:57:48 76° ESE 22:02:59 10° NNE
ALOS 4.4 21:53:47 10° SSW 21:57:50 29° W 22:01:54 10° NW
Cosmos 1850 Rocket 4.4 21:53:42 10° N 21:58:50 47° ENE 22:03:55 10° SE
Lacrosse 5 2.3 21:54:39 10° SSW 21:59:22 41° SE 22:04:08 10° ENE
NOSS 2-3 (C) 3.9 21:54:53 10° SSW 21:59:23 53° ESE 22:04:31 10° NE
H-2A R/B 4.2 21:58:51 10° SSW 22:02:25 39° W 22:05:58 10° NNW
Resurs 1-3 3.6 21:59:19 10° SSE 22:03:41 81° ENE 22:08:06 10° N
Uosat 12 SS-18 rocket 4.4 21:59:54 10° SSW 22:04:37 82° ESE 22:10:27 10° NE
Helios 1B rocket 3.7 22:02:40 10° NE 22:05:45 20° E 22:08:32 11° SE
BREEZE-M DEB (TANK) 2.1 22:04:47 10° WSW 22:09:04 62° NNW 22:11:10 10° NE
SeaSat 1 2.6 22:04:38 10° NE 22:09:27 51° ESE 22:14:14 10° S
S3M 4.0 22:06:03 10° N 22:12:21 79° E 22:18:42 10° S
Cosmos 1553 Rocket 3.9 22:07:29 10° N 22:13:40 87° E 22:19:45 10° S
Cosmos 2263 Rocket 2.5 22:08:28 10° NNW 22:14:03 53° ENE 22:18:48 14° SE
Meteor 1-11 Rocket 3.7 22:10:39 10° S 22:16:28 77° E 22:22:13 10° NNE
Cosmos 2322 Rocket 2.2 22:11:10 10° SSW 22:16:52 88° ESE 22:22:37 10° NNE
Cosmos 2266 Rocket 4.1 22:11:25 10° SSE 22:17:14 52° E 22:23:03 10° NNE
USA 186 2.3 22:17:27 10° S 22:20:46 62° W 22:24:07 10° NNW
Okean 1 Rocket 3.3 22:21:20 10° SSE 22:25:27 45° E 22:29:38 10° NNE
Cosmos 1140 Rocket 4.2 22:20:21 10° NNW 22:25:28 55° WSW 22:30:34 10° S
Cosmos 1300 Rocket 3.4 22:22:28 10° S 22:26:46 73° E 22:31:04 10° NNE
Cosmos 614 Rocket 4.4 22:22:00 10° NNW 22:27:04 62° WSW 22:32:07 10° S
ATLAS 3B R/B 3.4 22:21:41 10° NNW 22:27:56 38° NE 22:32:09 18° ESE
Cosmos 220 Rocket 4.5 22:23:53 10° N 22:28:00 42° ENE 22:30:20 23° SE
SL-16 R/B 2.4 22:23:16 10° SSW 22:28:55 75° WNW 22:34:37 10° NNE
SJ-11-01 4.2 22:24:54 12° SSE 22:29:14 70° ENE 22:33:54 10° N
Spot 2 Rocket 4.0 22:25:04 10° S 22:30:05 61° WSW 22:35:09 10° NNW
Cosmos 1025 Rocket 3.8 22:26:57 10° NNE 22:30:49 33° ENE 22:32:31 24° ESE
Okean 2 4.3 22:31:33 10° NNE 22:35:11 30° ENE 22:36:18 26° ESE
Meteor 1-23 Rocket 4.2 22:30:14 10° N 22:35:46 63° ENE 22:40:09 17° SSE
USA 267 4.3 22:30:35 10° SSE 22:36:36 39° SW 22:42:40 10° WNW
Okean 1-7 Rocket 4.2 22:34:32 10° N 22:38:47 39° ENE 22:40:35 27° SE
NOSS 2-3 (D) 4.1 22:34:34 10° SW 22:39:12 73° NW 22:44:36 10° NNE
Resurs 01 Rocket 3.1 22:35:08 10° SSW 22:39:15 37° W 22:43:24 10° NNW
Cosmos 2322 4.0 22:34:47 10° S 22:40:05 43° ESE 22:45:25 10° NE
YAOGAN 6 2.4 22:38:53 26° SSE 22:40:46 72° ENE 22:44:17 10° N
Cosmos 1932 4.5 22:40:49 10° NNW 22:47:20 74° ENE 22:51:08 26° SE
GPS 2-05 Rocket1 3.9 22:45:34 10° WSW 22:48:29 27° SSW 22:48:44 27° S
ERS-1 Rocket 3.4 22:46:39 28° SE 22:48:49 45° ENE 22:53:36 10° N
Cosmos 2360 Rocket 2.1 22:44:07 10° S 22:49:41 65° ESE 22:55:15 10° NNE
COSMOS 2428 3.5 22:50:11 28° ESE 22:50:52 29° ESE 22:55:42 10° NE
Cosmos 1975 4.3 22:53:19 21° ENE 22:53:19 21° ENE 22:55:30 10° NE
Cosmos 1515 4.2 22:49:01 10° N 22:52:37 38° ENE 22:52:54 37° E
Helios 1A 2.9 22:51:25 26° SSE 22:53:46 88° ENE 22:58:03 10° NNW
Tiangong 1 0.9 22:51:13 10° WNW 22:53:51 63° SW 22:53:51 63° SW
Abrixas rocket 4.3 22:55:35 10° NW 22:58:10 21° N 22:59:32 16° NE
Envisat 4.2 22:54:40 10° SSW 22:59:25 40° W 23:04:14 10° NNW
Meteor 1-5 Rocket 4.3 22:56:56 10° SSW 23:02:15 73° W 23:07:34 10° N
Cosmos 2333 Rocket 4.2 23:07:14 12° ENE 23:07:14 12° ENE 23:07:54 10° ENE
ATLAS 2AS CENTAUR R/B 3.2 22:57:52 10° SW 23:05:33 77° NW 23:13:43 10° NNE
Cosmos 1500 3.5 23:07:20 49° ENE 23:07:20 49° ENE 23:10:48 10° NNE
H-2A R/B 2.8 23:06:28 30° E 23:07:09 32° ENE 23:11:32 10° N
Cosmos 1939 Rocket 4.3 23:06:07 13° SSW 23:09:17 34° W 23:12:54 10° NNW
NOAA 11 4.1 23:06:37 32° SSE 23:09:17 80° ENE 23:14:49 10° N
Meteor 1-29 2.9 23:08:47 10° N 23:12:12 78° WNW 23:12:43 61° SW
Cosmos 1238 Rocket 4.1 23:09:40 10° N 23:16:18 58° E 23:18:21 41° SE
Cosmos 1892 Rocket 3.8 23:14:41 10° N 23:18:53 49° ENE 23:18:53 49° ENE
Cosmos 1302 Rocket 4.0 23:19:12 44° SSE 23:20:37 61° ESE 23:25:50 10° NNE
MetOp-A 4.0 23:20:38 44° SSE 23:22:24 84° ENE 23:27:47 10° NNW
Cosmos 1486 Rocket 4.1 23:19:23 10° N 23:24:32 54° ENE 23:25:10 51° E
SAR-Lupe-4 4.0 23:29:30 59° W 23:29:30 59° W 23:32:59 10° NNW
Cosmos 1544 Rocket 3.9 23:33:03 53° NE 23:33:03 53° NE 23:36:46 10° NNE
Cosmos 1066 Rocket 4.0 23:29:20 10° N 23:34:45 69° E 23:35:27 62° ESE
SPOT 5 2.7 23:35:52 70° E 23:36:03 71° ENE 23:40:42 10° N
Nadezhda 1 Rocket 4.3 23:32:36 10° N 23:38:42 48° ENE 23:39:16 47° E
BREEZE M DEB (TANK) 2.5 23:33:07 10° WSW 23:39:47 74° W 23:39:47 74° W
Helios 1B rocket 4.2 23:37:28 10° N 23:41:05 30° WNW 23:44:40 10° SW
Lacrosse 5 3.3 23:37:41 10° WSW 23:42:22 37° NW 23:47:05 10° NNE
Atlas Centaur 2 3.9 23:36:43 10° WSW 23:43:01 26° SSW 23:43:38 26° SSW
Cosmos 1455 Rocket 3.6 23:45:47 52° NNE 23:45:47 52° NNE 23:49:14 10° NNE
Cosmos 405 4.4 23:46:38 37° NNW 23:46:38 37° NNW 23:49:01 10° N
ARGOS 3.2 23:45:21 57° SSW 23:46:21 74° WSW 23:51:45 10° NNW
SL-8 R/B 3.8 23:50:00 10° WNW 23:54:21 71° NNW 23:54:21 71° NNW
SL-08 RB Rocket 3.9 23:55:12 68° WNW 23:55:12 68° WNW 23:59:29 10° NNW
